Terminal Aerodrome Forecast
Issued by NWS

Current Version | Previous Version | Graphics & Text | Print | Product List | Glossary On
Versions: 1 2 3 4 5 6 7 8 9 10 11 12 13 14 15 16 17 18 19 20 21 22 23 24 25
000
FTUS41 KPBZ 262200 AAA
TAFHLG
TAF AMD
KHLG 262253Z 2623/2718 21005KT P6SM VCSH BKN040
      TEMPO 2623/2624 24010G20KT 2SM -TSRA BKN035CB
     FM271700 23008KT 6SM -SHRA VCTS OVC035CB=

USA.gov is the U.S. government's official web portal to all federal, state and local government web resources and services.